{"data":{"norad_id":44768,"intl_designator":"2019-074BH","name":"STARLINK-1063","alt_names":[],"object_type":"PAYLOAD","status":"ACTIVE","operator":null,"country":"US","launch_date":"2019-11-11","launch_site_code":"AFETR","launch_vehicle":null,"mission":null,"orbit_class":"UNKNOWN","rcs_meters":null,"size_class":null,"mass_kg":null,"dimensions":null,"purposes":["comms"],"wikipedia_slug":null,"has_3d_model":false,"image_url":null,"decayed_at":null,"tle_current":{"epoch":"2026-05-25T03:42:45.912384Z","epoch_age_seconds":58351,"freshness":"FRESH","line1":"1 44768U 19074BH  26145.15469806  .00046424  00000+0  90711-3 0  9997","line2":"2 44768  53.1561 219.7732 0001494  22.6733 337.4341 15.47023969360082","mean_motion":15.47023969,"eccentricity":0.0001494,"inclination_deg":53.1561,"raan_deg":219.7732,"arg_perigee_deg":22.6733,"mean_anomaly_deg":337.4341,"bstar":0.00090711,"rev_number":36008,"period_min":93.081945002495,"perigee_km":424.42107047165,"apogee_km":426.45397853958,"semimajor_km":6803.5745245056,"source":"CELESTRAK","updated_at":"2026-05-25T13:38:16.374515Z"}}}